Temp
15 14 13 13 13 13 13 13 13 13 13 12 12 12 12 12 12 12 12 12 12 12 12 12 12 12 12 12 12 12 12 12 12 12 12 12 13 13 12 12 12 12 12 12 12 12 12 11 11 11 11 11 11 11 11 11 10 10 10 11 11 11 11
14 14 13 13 13 13 14 14 14 14 13 12 12 12 12 12 12 12 12 12 12 12 12 12 12 12 12 12 12 12 13 13 12 12 12 12 12 12 12 12 12 12 12 12 12 12 12 11 11 11 11 11 11 11 11 11 11 11 11 11 11 11 11
14 14 14 14 14 14 14 14 14 13 12 12 12 11 11 11 12 12 12 12 12 12 12 12 12 12 12 12 12 12 13 13 13 12 12 12 12 12 12 12 12 12 12 12 11 12 12 12 11 11 11 11 11 11 11 11 11 11 11 11 11 11 11
15 15 15 15 15 14 14 14 13 13 12 12 12 11 11 11 12 12 12 12 12 12 12 12 12 12 12 12 12 12 12 12 12 12 12 12 12 12 12 12 12 12 12 12 12 12 12 12 11 11 11 12 12 11 11 11 11 11 11 11 11 11 11
16 15 15 15 15 15 14 13 13 13 12 12 12 12 11 11 11 11 12 12 12 12 12 12 12 12 12 12 12 12 12 12 12 12 12 12 12 12 12 12 12 12 12 12 12 12 12 12 12 12 12 12 12 11 11 11 11 11 11 11 11 11 11
16 16 16 15 15 14 14 13 13 13 12 12 12 12 11 11 11 11 11 12 12 12 11 11 12 12 12 12 12 12 12 12 12 12 12 12 12 12 12 12 12 12 12 12 12 12 12 12 12 12 12 12 11 11 11 11 11 10 10 10 11 11 11
16 16 15 15 15 14 13 13 13 12 12 12 11 11 11 11 11 11 11 11 11 11 11 11 11 12 12 12 12 12 12 12 12 12 12 12 12 12 12 12 12 12 12 12 12 12 12 12 12 12 12 11 11 11 11 11 11 10 10 10 11 11 11
16 15 15 15 14 13 13 12 12 12 12 12 11 11 11 11 10 10 11 11 11 11 11 11 11 11 12 12 12 12 12 12 11 12 12 12 12 12 12 12 12 12 12 12 12 12 12 12 12 13 12 12 11 11 11 11 11 11 11 10 10 10 11
15 15 14 13 13 13 13 12 12 12 12 12 12 11 11 11 11 11 11 11 11 11 11 11 10 11 11 11 11 11 11 11 11 11 12 12 12 12 12 12 12 12 12 12 12 12 12 12 12 12 13 12 12 12 11 11 11 11 11 11 11 10 11
14 14 14 13 13 13 13 12 12 12 12 12 12 12 11 11 11 11 11 11 11 11 10 10 10 11 11 11 11 11 11 11 11 12 12 12 12 12 12 12 12 13 12 12 12 12 12 12 12 12 13 13 12 12 12 11 11 11 11 11 11 10 10
14 14 13 13 13 13 13 13 13 13 12 12 12 12 12 11 11 11 12 11 11 10 10 10 10 10 11 11 11 12 12 11 11 12 12 12 12 12 12 12 12 13 12 12 12 12 13 13 12 12 13 13 12 12 12 12 11 11 11 11 11 11 10
13 13 13 13 13 13 13 13 13 13 13 12 12 12 12 12 12 12 12 12 11 11 10 10 10 10 11 11 11 11 12 12 12 12 12 12 12 12 12 12 12 12 13 13 13 13 13 13 13 13 13 13 13 12 12 12 11 11 11 11 10 10 10
13 13 13 13 13 13 13 13 13 13 13 13 13 12 12 12 12 12 12 12 12 11 10 10 10 10 11 11 11 11 12 12 12 12 12 12 12 12 12 12 12 12 13 13 13 13 13 13 13 13 13 13 13 13 13 13 12 11 10 11 11 10 10
12 12 13 13 13 13 13 13 13 13 13 13 12 12 12 11 11 11 11 11 11 11 11 10 10 10 11 11 11 11 11 11 12 11 11 11 12 12 12 12 12 12 13 13 13 13 13 13 13 13 13 13 13 13 13 12 12 11 11 11 11 10 10
12 12 12 13 13 13 12 13 13 13 13 12 12 12 11 11 11 11 11 11 11 11 11 11 10 10 11 11 11 11 11 11 11 11 11 11 11 11 11 12 12 12 12 13 13 13 12 13 13 12 12 12 12 12 12 12 12 11 11 11 10 10 10
12 12 12 12 12 12 12 12 13 13 12 12 12 11 11 11 10 10 10 10 10 11 11 10 10 10 11 11 11 11 11 11 11 11 11 11 11 11 12 12 12 12 12 12 12 12 12 12 12 12 12 12 12 12 12 11 11 11 11 10 10 10 10
12 12 12 12 12 12 12 12 13 12 12 12 11 11 11 11 11 11 10 10 10 10 10 10 10 11 11 11 11 11 11 11 11 11 11 11 12 12 12 12 12 12 12 12 12 12 12 12 12 12 12 12 12 12 11 11 11 11 11 11 10 10 10
12 12 12 11 11 11 12 12 12 12 12 12 11 11 11 11 11 11 11 11 10 10 10 11 11 11 11 11 11 11 11 11 11 11 11 12 12 12 12 13 13 12 12 12 12 12 12 12 12 12 12 12 11 11 11 11 11 11 11 10 10 10 10
11 11 11 11 11 11 11 12 12 12 12 11 11 11 11 11 11 11 11 11 11 11 11 11 11 11 11 11 11 11 11 11 11 11 11 12 12 12 12 13 13 13 13 12 12 12 12 12 12 12 12 11 11 11 11 11 11 10 10 10 10 10 10
11 11 11 11 11 11 11 11 11 11 11 11 11 11 11 11 11 11 11 11 11 11 11 11 11 12 12 12 12 11 11 11 11 11 11 12 12 12 13 13 13 13 12 12 12 12 12 12 11 11 11 11 11 11 11 11 11 11 10 10 10 10 10
11 11 11 11 11 11 11 11 11 11 11 11 11 11 11 11 11 11 11 11 11 11 11 11 11 12 12 12 12 12 12 12 11 11 11 12 12 12 12 13 13 12 12 12 12 12 12 12 12 11 11 11 11 11 10 11 11 10 10 10 10 10 10
11 11 10 10 11 11 11 11 11 11 11 11 11 11 11 11 11 11 11 11 11 11 11 11 11 11 12 12 12 12 12 12 12 12 12 12 12 12 12 12 12 12 12 12 12 12 12 11 11 11 11 11 11 11 10 10 10 10 10 10 10 10 10
11 10 10 10 11 11 11 11 11 11 11 11 11 11 11 11 11 11 11 11 11 11 11 11 11 11 11 11 11 12 12 12 12 12 12 12 12 11 11 12 12 12 12 12 12 12 11 11 11 11 11 11 10 10 10 10 10 10 10 10 10 10 9
11 11 10 10 11 11 10 10 11 11 11 11 11 11 11 11 11 11 11 11 11 11 11 11 11 11 11 11 11 11 11 12 12 12 12 11 11 11 11 11 11 11 11 11 11 11 11 11 11 11 11 10 10 10 10 10 10 10 10 10 10 9 9
11 11 11 11 11 11 10 10 11 11 11 11 11 11 10 11 11 11 11 11 11 11 11 11 11 11 11 11 11 11 11 11 11 11 11 10 10 10 11 11 11 11 11 11 11 11 10 10 10 10 10 10 10 10 10 10 10 9 9 9 9 9 9
10 10 11 11 11 11 10 10 10 10 11 11 11 11 10 10 11 11 11 11 11 11 11 11 11 11 11 11 11 11 11 11 11 11 10 10 10 10 10 10 10 10 10 10 10 10 10 10 10 10 10 10 10 10 10 9 9 9 9 9 9 8 9
10 9 10 10 10 10 10 10 10 10 10 10 10 10 10 10 10 11 11 11 11 11 11 11 11 11 11 11 11 11 11 10 10 10 10 10 10 10 10 10 10 10 10 10 10 10 10 10 10 10 10 10 9 9 9 9 9 9 9 8 8 8 8
10 10 10 10 9 9 10 10 10 10 10 10 10 10 10 10 10 10 10 10 10 11 11 11 11 11 11 11 11 11 11 10 10 10 10 10 10 10 10 10 10 10 10 10 10 10 10 10 10 10 10 9 9 9 9 9 9 9 8 8 8 8 8
10 10 10 10 10 10 10 9 10 10 10 10 10 10 10 10 10 10 10 10 10 10 10 11 11 11 11 11 11 11 11 10 10 10 10 10 10 10 10 10 10 10 10 9 9 10 10 9 9 9 9 9 9 9 9 9 8 8 8 8 8 7 7
10 10 10 10 10 10 10 10 10 9 9 9 9 10 10 10 10 10 10 10 10 10 10 10 10 11 11 11 10 10 10 10 10 10 9 9 9 10 9 9 9 9 9 9 9 9 9 9 9 9 8 8 8 8 8 9 8 8 8 8 8 7 7
9 9 10 10 10 10 10 10 10 10 10 9 9 9 9 10 10 10 10 10 10 10 10 10 10 10 11 10 10 10 10 10 10 9 9 9 9 9 9 9 9 9 9 9 9 9 9 9 9 9 8 8 7 8 9 9 9 8 8 8 7 7 7
9 9 9 9 9 9 9 9 10 10 10 10 10 9 9 9 9 9 9 10 10 10 10 10 10 10 11 11 10 10 10 10 9 9 9 9 9 9 9 9 9 9 9 8 8 9 9 9 9 8 8 8 8 8 9 9 8 8 8 7 7 7 6
9 9 9 9 9 9 9 9 9 9 9 9 9 9 9 9 9 9 9 9 9 9 10 10 10 10 10 10 11 11 10 10 10 9 9 9 8 8 8 8 8 8 8 8 8 8 8 8 8 8 8 8 8 9 8 8 8 8 8 7 7 7 7
9 9 9 9 9 9 9 9 9 9 9 9 8 8 9 9 9 9 9 9 9 9 9 9 10 10 10 10 10 10 10 10 10 9 9 8 8 8 8 8 8 8 8 8 8 8 8 8 8 7 7 8 8 8 8 8 8 8 7 7 7 7 6
7 8 8 8 8 8 8 8 8 8 8 8 8 7 8 8 8 8 9 9 9 9 9 9 9 9 9 10 10 10 10 10 10 9 9 8 8 8 8 8 8 8 7 7 7 7 7 7 7 7 8 8 8 8 8 7 7 7 7 6 6 6 6
6 6 6 6 6 6 6 7 6 6 6 6 6 6 6 7 7 7 8 8 8 8 9 9 9 9 9 9 9 9 10 10 9 9 8 8 8 8 8 7 7 7 7 7 7 7 7 7 7 7 7 7 7 7 7 7 7 6 6 6 6 5 5
5 5 5 5 5 5 5 5 5 5 5 5 5 6 6 6 6 7 7 7 8 8 8 8 9 9 9 9 9 9 9 9 9 8 8 8 8 8 7 6 6 6 6 6 6 6 7 7 7 6 7 7 7 6 6 6 6 6 5 5 5 4 4
Height
1535 1536 1538 1538 1539 1539 1539 1540 1540 1541 1542 1542 1543 1544 1545 1545 1545 1546 1546 1547 1547 1547 1548 1548 1548 1548 1549 1550 1551 1552 1553 1554 1554 1555 1555 1554 1554 1555 1555 1556 1557 1558 1560 1561 1561 1562 1564 1567 1570 1571 1571 1572 1573 1574 1574 1574 1575 1575 1575 1575 1575 1575 1575
1535 1537 1538 1539 1539 1539 1539 1539 1540 1540 1541 1542 1543 1544 1545 1545 1545 1546 1546 1546 1546 1547 1547 1548 1548 1548 1549 1550 1551 1552 1553 1553 1554 1554 1555 1555 1555 1556 1556 1557 1558 1559 1560 1562 1563 1563 1564 1565 1569 1570 1571 1572 1574 1575 1575 1576 1576 1577 1577 1576 1576 1576 1576
1534 1536 1538 1539 1539 1539 1539 1539 1539 1540 1541 1542 1543 1544 1545 1545 1545 1545 1546 1546 1546 1547 1547 1548 1548 1548 1549 1550 1552 1552 1553 1553 1553 1554 1555 1555 1555 1556 1556 1557 1558 1559 1560 1562 1563 1564 1564 1565 1567 1570 1571 1572 1574 1576 1577 1577 1577 1577 1578 1578 1577 1577 1577
1533 1536 1537 1538 1539 1539 1538 1538 1539 1540 1541 1542 1543 1543 1544 1544 1544 1545 1546 1546 1546 1547 1548 1548 1548 1549 1549 1550 1551 1552 1553 1554 1554 1554 1554 1555 1555 1556 1556 1557 1558 1559 1560 1561 1562 1564 1565 1566 1567 1569 1571 1572 1574 1576 1577 1578 1578 1578 1578 1578 1578 1577 1577
1533 1535 1536 1538 1538 1539 1538 1538 1539 1539 1540 1541 1542 1542 1543 1544 1545 1545 1546 1546 1547 1547 1548 1549 1549 1550 1550 1551 1552 1552 1553 1554 1554 1554 1554 1555 1555 1556 1556 1557 1558 1559 1560 1561 1562 1564 1565 1566 1567 1569 1571 1572 1574 1576 1578 1578 1579 1579 1578 1578 1578 1578 1578
1532 1534 1536 1537 1539 1539 1539 1538 1538 1538 1539 1540 1541 1542 1543 1543 1545 1546 1546 1547 1547 1548 1549 1549 1549 1550 1551 1552 1553 1553 1553 1554 1554 1554 1554 1555 1556 1556 1556 1556 1557 1559 1560 1562 1563 1564 1566 1567 1568 1569 1570 1572 1574 1575 1578 1579 1579 1579 1578 1578 1578 1578 1579
1532 1534 1536 1537 1539 1539 1539 1539 1539 1539 1539 1539 1541 1542 1542 1543 1544 1546 1547 1547 1548 1549 1549 1550 1550 1551 1552 1553 1554 1554 1554 1554 1554 1554 1555 1555 1556 1557 1556 1556 1557 1558 1560 1561 1563 1565 1566 1567 1567 1568 1570 1572 1574 1576 1577 1579 1579 1578 1578 1578 1578 1579 1579
1532 1534 1536 1538 1539 1540 1540 1540 1540 1539 1539 1540 1541 1542 1543 1544 1545 1546 1547 1548 1548 1549 1550 1551 1551 1552 1553 1554 1554 1555 1554 1554 1555 1555 1555 1556 1556 1557 1557 1557 1558 1559 1560 1562 1563 1565 1566 1567 1568 1568 1568 1570 1574 1576 1577 1578 1578 1578 1578 1578 1579 1579 1579
1532 1534 1536 1538 1539 1540 1541 1541 1541 1540 1540 1540 1541 1542 1543 1544 1545 1546 1547 1548 1549 1549 1550 1551 1552 1553 1554 1555 1555 1555 1555 1555 1556 1555 1556 1556 1556 1557 1558 1558 1559 1559 1561 1562 1564 1566 1567 1568 1568 1569 1569 1569 1571 1574 1577 1578 1578 1578 1579 1579 1579 1579 1579
1533 1534 1536 1537 1539 1540 1540 1541 1541 1540 1540 1541 1541 1542 1542 1543 1545 1546 1547 1548 1549 1550 1550 1551 1553 1554 1555 1556 1556 1556 1556 1556 1556 1556 1556 1556 1557 1557 1558 1558 1559 1560 1561 1563 1564 1566 1567 1568 1568 1569 1570 1570 1570 1572 1574 1576 1577 1577 1578 1579 1579 1579 1579
1533 1534 1536 1537 1538 1539 1539 1540 1541 1540 1540 1541 1541 1541 1542 1543 1545 1546 1547 1548 1549 1550 1551 1551 1553 1555 1556 1557 1557 1557 1557 1557 1556 1556 1556 1556 1557 1557 1558 1559 1560 1561 1562 1563 1565 1566 1567 1568 1568 1570 1571 1571 1571 1571 1572 1574 1576 1577 1578 1578 1579 1579 1579
1532 1534 1535 1536 1538 1538 1539 1539 1540 1540 1540 1540 1541 1541 1542 1543 1545 1546 1547 1548 1549 1549 1550 1551 1553 1555 1556 1557 1558 1558 1558 1557 1557 1556 1556 1556 1556 1557 1559 1560 1561 1562 1563 1564 1565 1566 1567 1568 1569 1570 1570 1571 1572 1572 1572 1573 1575 1577 1578 1578 1578 1578 1579
1532 1533 1534 1536 1537 1538 1538 1538 1539 1540 1540 1540 1541 1541 1542 1543 1544 1545 1546 1547 1548 1549 1550 1551 1552 1554 1556 1557 1558 1558 1558 1558 1557 1556 1556 1556 1556 1557 1558 1560 1561 1562 1564 1565 1566 1566 1567 1568 1569 1570 1571 1571 1572 1573 1573 1573 1574 1576 1578 1578 1578 1578 1578
1531 1533 1534 1535 1537 1537 1538 1538 1539 1539 1540 1540 1540 1541 1543 1543 1544 1545 1546 1547 1548 1549 1550 1551 1552 1553 1555 1557 1558 1559 1559 1559 1558 1557 1557 1556 1557 1557 1558 1559 1561 1563 1564 1565 1566 1567 1568 1569 1569 1570 1572 1572 1573 1574 1575 1575 1575 1576 1577 1578 1578 1578 1578
1531 1533 1534 1535 1536 1537 1537 1538 1538 1539 1540 1540 1540 1541 1543 1544 1545 1545 1546 1547 1548 1549 1549 1550 1552 1553 1554 1556 1558 1559 1559 1560 1559 1559 1558 1557 1557 1558 1559 1560 1561 1563 1564 1565 1566 1568 1568 1569 1569 1571 1572 1573 1574 1575 1575 1575 1576 1576 1576 1577 1578 1578 1578
1532 1533 1534 1534 1535 1536 1537 1538 1538 1539 1540 1540 1541 1542 1543 1544 1545 1546 1547 1547 1548 1549 1550 1551 1551 1553 1554 1556 1557 1559 1560 1560 1560 1559 1559 1558 1558 1558 1559 1560 1562 1563 1564 1565 1566 1568 1568 1569 1570 1571 1572 1573 1573 1574 1574 1575 1575 1575 1576 1576 1577 1577 1577
1532 1534 1534 1535 1535 1536 1537 1538 1538 1539 1540 1541 1541 1542 1543 1545 1546 1547 1547 1548 1548 1549 1550 1550 1551 1553 1554 1555 1557 1558 1559 1560 1560 1560 1559 1559 1559 1560 1560 1561 1562 1563 1564 1565 1566 1567 1568 1569 1570 1571 1572 1572 1573 1573 1574 1574 1574 1575 1575 1575 1576 1577 1577
1533 1534 1535 1536 1536 1536 1537 1538 1539 1540 1540 1541 1542 1543 1544 1545 1546 1547 1547 1548 1548 1549 1549 1550 1551 1552 1554 1555 1556 1557 1558 1559 1559 1559 1559 1559 1559 1560 1561 1562 1563 1564 1564 1565 1566 1567 1568 1568 1569 1570 1571 1572 1572 1572 1573 1574 1574 1574 1575 1575 1575 1576 1576
1532 1534 1535 1536 1536 1536 1537 1537 1538 1539 1540 1542 1543 1543 1544 1545 1546 1546 1547 1547 1548 1549 1549 1550 1550 1551 1553 1554 1555 1557 1558 1558 1558 1558 1558 1558 1558 1560 1561 1562 1562 1563 1564 1565 1565 1566 1567 1568 1568 1569 1570 1571 1572 1572 1573 1573 1574 1574 1574 1574 1574 1575 1575
1532 1533 1534 1535 1535 1536 1536 1537 1538 1539 1540 1542 1543 1543 1544 1544 1545 1546 1546 1547 1547 1548 1549 1549 1550 1551 1552 1553 1554 1556 1557 1558 1558 1558 1557 1557 1558 1559 1560 1561 1562 1562 1563 1564 1565 1566 1566 1566 1567 1567 1568 1570 1571 1572 1572 1573 1573 1573 1573 1574 1574 1574 1574
1533 1533 1533 1533 1534 1535 1536 1536 1537 1538 1540 1541 1542 1543 1543 1544 1544 1545 1546 1546 1547 1548 1549 1549 1549 1550 1551 1552 1554 1555 1556 1557 1557 1557 1557 1557 1557 1558 1559 1560 1561 1562 1562 1563 1564 1565 1565 1565 1566 1566 1567 1568 1569 1570 1570 1571 1572 1572 1573 1573 1572 1572 1572
1531 1532 1532 1532 1533 1534 1535 1536 1537 1538 1539 1540 1541 1542 1542 1543 1543 1544 1545 1546 1547 1547 1548 1548 1549 1550 1551 1552 1553 1554 1555 1556 1556 1556 1556 1556 1557 1557 1558 1559 1560 1560 1561 1562 1563 1564 1564 1565 1565 1565 1566 1566 1567 1568 1568 1569 1570 1570 1571 1571 1571 1571 1571
1530 1531 1531 1531 1533 1534 1534 1535 1536 1537 1538 1539 1540 1541 1541 1542 1542 1543 1544 1545 1546 1546 1547 1547 1548 1549 1549 1550 1552 1553 1554 1554 1555 1555 1555 1555 1555 1556 1556 1557 1557 1558 1559 1560 1561 1562 1563 1563 1564 1564 1565 1565 1565 1566 1566 1567 1567 1568 1568 1568 1569 1569 1569
1530 1530 1530 1531 1532 1533 1534 1535 1536 1537 1537 1538 1539 1539 1540 1541 1541 1542 1543 1543 1544 1545 1546 1546 1547 1547 1548 1549 1550 1550 1551 1552 1553 1553 1554 1553 1553 1554 1554 1554 1555 1555 1556 1557 1558 1559 1560 1561 1562 1562 1563 1563 1563 1564 1564 1564 1565 1565 1566 1566 1566 1566 1566
1529 1530 1530 1531 1531 1532 1533 1535 1536 1537 1537 1537 1538 1539 1539 1540 1540 1541 1542 1543 1544 1544 1545 1545 1545 1546 1547 1547 1548 1548 1549 1550 1551 1551 1551 1551 1551 1552 1552 1552 1552 1553 1554 1554 1556 1557 1558 1559 1559 1560 1560 1560 1561 1561 1562 1562 1562 1563 1563 1564 1564 1564 1564
1531 1531 1531 1531 1532 1533 1534 1535 1536 1536 1537 1537 1537 1538 1539 1539 1540 1540 1541 1542 1543 1543 1543 1544 1544 1544 1545 1545 1546 1546 1546 1547 1548 1548 1548 1548 1549 1549 1550 1550 1550 1551 1552 1552 1553 1554 1555 1556 1557 1557 1557 1558 1558 1559 1559 1560 1560 1560 1561 1561 1561 1561 1561
1531 1532 1532 1533 1534 1534 1535 1535 1535 1536 1536 1536 1536 1537 1538 1538 1539 1539 1540 1540 1541 1542 1542 1542 1543 1543 1543 1543 1543 1543 1544 1544 1544 1543 1544 1545 1546 1547 1548 1548 1548 1549 1549 1549 1550 1551 1552 1553 1554 1554 1555 1555 1555 1556 1556 1557 1557 1558 1558 1559 1559 1559 1559
1530 1531 1532 1533 1533 1534 1534 1534 1534 1534 1534 1535 1535 1535 1536 1536 1537 1538 1538 1538 1539 1540 1540 1541 1541 1541 1541 1541 1541 1541 1541 1541 1540 1540 1540 1541 1542 1543 1544 1545 1545 1546 1547 1547 1548 1549 1549 1550 1551 1552 1552 1552 1552 1553 1553 1554 1554 1555 1556 1556 1556 1557 1557
1529 1530 1531 1531 1531 1532 1532 1532 1532 1532 1533 1533 1533 1534 1534 1535 1535 1535 1535 1536 1536 1537 1537 1538 1538 1538 1538 1538 1538 1537 1538 1538 1537 1536 1536 1537 1538 1539 1540 1541 1541 1542 1543 1544 1545 1546 1546 1547 1548 1548 1548 1548 1549 1549 1550 1551 1552 1553 1554 1554 1554 1554 1555
1529 1529 1530 1530 1530 1531 1531 1530 1531 1531 1531 1531 1531 1532 1533 1533 1533 1533 1533 1533 1533 1533 1534 1534 1534 1534 1534 1533 1533 1533 1534 1534 1534 1533 1532 1533 1534 1535 1536 1537 1537 1538 1539 1540 1542 1542 1543 1544 1544 1545 1545 1545 1546 1546 1547 1548 1549 1550 1551 1552 1552 1552 1552
1527 1528 1528 1528 1529 1529 1529 1529 1529 1529 1529 1529 1530 1530 1531 1531 1532 1532 1531 1531 1531 1531 1531 1531 1531 1530 1530 1529 1529 1529 1529 1530 1530 1529 1529 1529 1530 1530 1531 1533 1533 1534 1535 1536 1538 1539 1539 1540 1541 1541 1542 1542 1543 1544 1545 1546 1547 1548 1549 1549 1550 1550 1550
1526 1525 1525 1526 1526 1526 1527 1527 1527 1527 1527 1528 1528 1528 1528 1529 1529 1530 1529 1529 1528 1528 1528 1528 1528 1527 1526 1526 1525 1525 1524 1524 1524 1525 1525 1525 1525 1525 1526 1528 1529 1530 1531 1533 1535 1536 1536 1536 1537 1538 1539 1539 1540 1542 1543 1544 1545 1546 1546 1547 1547 1548 1548
1524 1523 1523 1523 1523 1523 1524 1524 1524 1524 1524 1524 1525 1525 1526 1526 1526 1526 1526 1526 1525 1525 1524 1525 1525 1525 1524 1523 1522 1521 1521 1520 1519 1520 1520 1521 1521 1521 1522 1523 1524 1526 1528 1529 1531 1532 1533 1533 1534 1536 1536 1536 1538 1540 1541 1542 1543 1543 1544 1545 1546 1546 1546
1521 1521 1521 1520 1520 1520 1520 1520 1520 1520 1520 1521 1521 1521 1522 1522 1522 1522 1522 1522 1522 1521 1521 1521 1521 1521 1521 1521 1520 1519 1517 1516 1516 1516 1516 1517 1517 1517 1518 1519 1520 1522 1524 1525 1527 1528 1529 1530 1531 1533 1534 1535 1537 1538 1539 1540 1541 1542 1543 1543 1544 1544 1544
1518 1518 1517 1517 1516 1516 1516 1517 1517 1516 1517 1517 1517 1517 1518 1518 1518 1518 1518 1518 1517 1517 1517 1517 1517 1517 1517 1517 1517 1516 1515 1514 1513 1512 1512 1513 1513 1513 1514 1516 1516 1517 1518 1520 1523 1524 1526 1528 1529 1530 1532 1533 1535 1536 1537 1538 1539 1540 1541 1542 1542 1542 1543
1516 1515 1514 1514 1513 1513 1513 1513 1513 1514 1514 1514 1513 1513 1514 1514 1514 1514 1513 1514 1513 1513 1513 1513 1513 1513 1513 1513 1513 1513 1512 1511 1510 1509 1509 1509 1509 1510 1511 1512 1512 1513 1515 1517 1520 1522 1524 1526 1527 1528 1530 1531 1533 1534 1535 1536 1537 1538 1539 1540 1541 1541 1541
1513 1512 1512 1511 1510 1510 1510 1510 1510 1511 1511 1511 1510 1510 1510 1510 1511 1510 1509 1509 1509 1508 1508 1509 1509 1509 1509 1509 1509 1509 1509 1508 1507 1506 1506 1505 1506 1507 1508 1509 1511 1512 1513 1515 1518 1521 1523 1524 1525 1527 1528 1530 1531 1533 1534 1535 1536 1537 1538 1538 1539 1540 1540
Wind_Speed
13 13 13 11 11 10 7 8 7 7 9 8 7 6 4 3 4 5 5 5 5 3 1 2 4 5 6 8 7 6 7 8 9 9 10 11 12 12 12 11 8 6 10 15 17 20 21 20 17 16 17 16 14 14 13 12 10 8 5 3 4 7 8
14 12 12 12 11 10 8 7 6 6 6 6 5 5 4 5 6 8 8 5 4 4 3 2 2 5 7 8 7 8 8 7 8 9 10 11 12 13 14 13 10 10 13 16 17 19 22 24 22 20 19 17 15 14 12 12 10 6 3 3 5 7 8
15 13 13 12 11 10 10 9 7 6 6 7 7 7 7 6 6 9 11 8 4 5 5 2 4 6 6 7 7 8 8 7 7 8 9 11 11 13 15 14 13 13 17 19 19 20 22 24 24 23 19 17 17 15 12 10 8 5 3 4 5 5 5
15 14 14 13 12 12 11 9 8 8 8 8 9 9 9 8 7 8 10 11 8 6 5 4 5 5 4 5 5 7 8 8 8 8 9 10 10 12 13 14 13 14 18 20 20 21 22 23 24 21 17 15 16 17 14 10 7 4 2 2 3 3 3
15 15 15 14 14 13 11 10 8 6 6 7 8 10 9 7 7 7 9 11 11 8 6 5 5 5 6 6 6 7 8 8 8 9 9 9 9 10 11 12 12 13 17 19 20 20 18 19 21 19 18 18 19 19 16 12 7 2 2 3 4 5 5
16 15 16 15 15 13 11 9 7 5 6 6 5 7 7 6 7 8 8 9 10 9 8 6 4 5 7 7 6 7 7 7 8 8 8 8 8 8 9 11 12 14 17 19 20 18 15 17 20 20 20 19 19 19 16 13 11 6 2 3 6 7 7
15 15 16 16 15 12 10 8 8 7 7 6 4 4 6 8 9 8 9 8 9 10 9 6 4 4 7 7 6 7 8 8 8 9 9 10 12 11 11 11 13 15 17 19 20 18 17 20 20 20 21 19 17 18 17 14 12 9 5 1 6 7 7
15 15 16 16 13 11 10 9 9 9 8 8 6 4 7 11 11 9 8 6 9 12 11 8 6 5 6 7 7 9 11 12 12 13 13 15 18 18 17 15 15 15 16 19 20 18 19 21 19 18 22 23 21 20 19 17 13 8 6 3 2 5 5
16 15 17 17 14 12 12 12 12 11 10 9 7 5 7 12 13 11 7 6 12 15 12 10 8 6 7 9 11 12 13 15 16 18 18 17 17 18 19 19 18 17 16 18 19 19 19 20 18 18 19 22 26 24 20 18 15 10 6 4 2 2 4
16 16 18 19 16 14 14 14 13 12 11 9 7 6 7 11 13 11 7 9 14 15 12 10 8 8 10 12 12 13 14 16 18 20 20 18 16 16 18 18 19 19 17 16 17 16 16 15 18 21 16 16 25 27 23 19 15 12 9 4 1 3 4
16 17 19 19 17 15 14 14 12 11 10 8 7 6 8 11 11 9 8 11 14 15 12 10 8 10 12 13 12 12 13 15 18 21 20 19 19 18 17 17 19 19 17 17 17 16 15 14 16 20 16 14 22 26 24 20 16 13 11 6 2 3 4
18 18 19 18 17 15 13 12 11 10 8 6 6 7 8 8 9 9 9 10 11 13 13 11 9 10 12 12 12 11 12 16 19 20 19 19 19 19 19 18 19 19 18 20 20 17 15 15 15 14 12 16 23 24 19 17 16 14 10 7 4 1 2
20 20 19 17 16 14 11 10 10 9 7 6 8 8 7 7 8 9 9 9 9 11 12 12 10 10 12 13 12 11 12 16 20 20 18 17 17 17 18 18 18 18 19 20 20 17 14 12 11 10 10 15 20 20 17 14 15 16 11 6 4 2 1
21 20 19 17 15 12 10 10 9 8 6 7 9 8 7 7 7 7 8 8 9 11 12 12 11 11 12 12 11 11 12 15 18 18 17 17 17 17 17 18 19 18 17 17 17 16 13 9 8 8 10 14 15 14 13 11 12 15 13 8 6 5 3
22 20 18 17 15 12 10 9 9 7 7 8 9 8 7 6 6 8 8 8 9 11 12 14 15 13 13 14 13 14 14 16 18 17 17 19 21 20 19 19 20 19 18 16 15 14 12 10 9 9 10 12 13 12 10 8 9 11 11 9 9 8 5
22 20 17 17 15 12 10 8 8 8 8 9 10 9 7 6 7 8 7 6 9 12 14 15 15 14 16 17 15 15 16 18 18 17 17 20 22 21 20 21 21 20 18 17 16 13 13 12 11 11 12 10 10 10 8 7 7 8 8 8 10 10 5
22 19 17 16 15 12 10 8 9 9 9 10 12 11 7 7 8 9 7 6 8 11 13 14 13 15 18 17 16 17 19 19 18 17 17 19 21 20 19 20 20 19 17 16 15 12 13 14 11 9 10 10 8 8 7 8 8 7 7 8 8 7 4
22 19 17 16 15 12 9 8 10 10 9 11 13 12 8 8 10 10 7 6 8 9 10 10 11 16 20 18 17 18 20 20 19 18 17 18 20 19 17 16 17 16 15 15 15 13 13 14 11 9 8 8 8 8 8 9 8 7 7 8 7 6 4
21 18 16 15 14 11 8 8 10 11 10 10 13 12 9 9 11 10 8 7 7 6 7 7 9 15 20 19 18 18 19 21 19 17 17 17 18 19 16 15 14 13 14 14 15 14 13 12 10 9 7 5 6 9 10 11 9 7 8 9 7 5 5
18 17 17 17 15 12 9 8 9 11 11 11 13 11 10 11 11 9 8 8 8 5 5 7 8 11 15 17 17 17 19 20 19 16 16 17 17 17 16 15 13 12 13 14 14 14 14 13 12 10 8 7 7 8 10 12 12 9 8 9 7 6 6
16 16 16 16 15 13 12 10 8 9 10 10 12 12 11 11 11 10 8 8 9 7 5 7 9 9 11 13 14 15 17 19 20 17 16 15 15 14 13 12 12 12 13 13 13 13 14 15 14 13 11 10 9 10 11 13 12 10 9 10 8 7 8
14 13 13 13 14 14 13 12 11 11 10 9 9 10 11 11 12 13 11 9 10 10 8 8 10 10 10 11 12 13 14 16 18 18 17 16 14 13 13 12 12 12 12 13 13 12 14 15 15 15 13 12 13 13 13 14 13 11 11 11 10 7 7
11 11 11 10 11 12 12 13 13 14 13 10 9 8 9 10 11 13 14 13 12 12 11 11 11 11 11 11 11 13 13 14 15 16 16 16 16 15 15 14 14 14 13 13 13 13 14 15 16 15 15 14 15 16 16 16 13 13 14 14 12 10 8
8 7 6 7 8 9 9 10 12 14 15 13 11 11 10 11 11 12 15 16 15 14 14 15 14 14 13 13 13 13 14 14 14 15 15 16 16 16 16 16 16 16 16 15 14 14 15 15 15 15 14 14 14 17 18 18 15 14 15 15 14 14 12
6 4 3 3 5 5 5 6 9 12 15 15 14 14 13 13 14 14 15 17 17 17 17 18 18 17 16 16 16 15 16 15 15 15 16 17 17 18 18 18 18 17 17 16 15 14 14 14 15 14 14 14 15 16 18 18 16 14 14 14 14 15 16
10 7 5 4 3 3 2 3 6 9 13 15 16 16 16 16 16 17 17 18 18 19 20 20 20 20 19 19 19 19 18 17 16 17 19 20 19 20 20 20 19 19 19 19 19 17 16 16 16 16 16 17 17 17 18 18 17 16 15 14 15 16 17
14 12 10 8 6 5 3 2 2 4 7 10 13 15 17 18 18 19 20 20 21 22 22 22 22 22 22 22 22 22 21 20 20 21 22 22 21 21 23 22 22 22 22 22 22 20 20 19 19 19 20 20 19 19 19 19 19 18 17 16 16 16 18
12 12 10 8 7 6 4 4 5 5 5 5 7 10 13 16 18 19 21 22 23 23 24 24 24 24 25 25 25 26 25 24 24 25 26 25 25 25 25 24 24 24 25 26 25 23 24 24 22 22 23 22 20 20 20 20 20 20 19 17 17 17 19
6 6 6 6 6 5 4 3 3 4 5 6 7 8 9 11 13 15 17 19 21 22 23 23 24 25 26 26 27 28 28 27 27 28 29 29 28 28 27 26 26 25 26 27 27 26 25 24 24 25 24 22 21 21 21 20 19 19 18 17 17 17 18
2 1 1 2 4 3 2 2 2 0 2 3 6 7 9 11 11 12 14 16 17 19 20 21 22 23 25 26 27 28 28 29 29 31 32 32 31 30 30 29 29 27 27 27 26 24 24 24 25 25 23 22 22 21 20 19 18 18 17 17 16 16 16
8 8 7 7 6 7 7 7 8 7 6 6 5 6 8 10 12 14 15 16 16 17 17 18 19 20 21 22 24 26 27 28 29 31 33 34 34 34 33 32 31 29 29 28 25 22 23 26 26 24 23 22 20 19 19 19 18 16 16 15 15 14 14
12 12 13 13 13 13 13 12 13 13 13 13 12 11 11 11 12 15 17 18 18 18 19 18 18 18 19 19 21 24 26 28 30 31 33 34 35 35 35 33 32 31 29 26 23 22 24 26 26 23 22 21 19 19 19 18 15 14 14 13 13 12 12
15 16 17 17 17 18 18 18 18 17 18 18 18 18 17 17 16 16 17 18 18 19 20 20 19 18 18 18 21 24 26 28 30 31 33 35 36 36 35 33 32 29 26 24 23 24 26 27 24 21 21 21 20 19 17 15 13 12 12 11 11 11 12
18 19 20 21 22 23 23 23 23 23 23 23 23 22 21 20 21 21 21 21 22 22 22 22 22 22 20 20 22 24 27 30 31 31 31 33 35 36 35 33 29 26 25 25 24 26 28 27 23 20 20 20 18 17 15 13 12 12 11 10 10 12 13
19 20 21 23 24 26 26 26 26 25 24 24 24 23 23 22 22 23 23 22 23 24 25 24 24 25 24 23 23 24 27 30 31 31 31 32 34 36 35 32 28 27 26 25 26 28 28 25 22 20 19 18 16 15 13 12 12 12 11 12 13 14 14
18 19 20 21 24 25 26 27 26 24 23 22 22 22 22 22 23 24 24 23 23 24 25 26 27 27 26 25 25 25 26 29 31 31 30 32 34 35 34 30 27 25 25 24 25 27 25 22 19 19 19 17 16 14 13 12 12 12 13 13 13 13 13
18 18 18 20 22 23 24 25 26 25 23 22 22 21 20 20 20 22 23 24 24 25 26 27 28 28 27 26 27 27 27 29 30 29 30 32 34 33 30 27 24 22 22 23 25 25 23 20 20 21 21 19 18 17 15 14 14 14 13 13 12 11 12
Wind_Direction
161 151 148 157 165 173 175 163 164 163 169 186 191 191 202 183 160 152 153 152 142 134 147 161 159 168 170 166 165 175 198 206 205 205 200 198 196 190 188 190 188 172 169 168 160 151 141 133 131 128 125 119 113 112 111 115 124 122 110 71 66 89 108
160 163 169 175 181 188 178 159 160 161 170 184 172 169 170 162 168 168 173 188 180 167 173 181 199 200 183 171 173 180 188 194 194 199 199 196 196 192 189 189 183 167 160 158 155 155 147 136 132 130 130 128 124 120 122 131 136 128 96 68 75 93 108
165 181 185 183 186 183 165 151 160 176 196 196 173 177 184 174 174 170 175 183 154 143 164 197 230 225 196 175 182 183 180 182 188 195 193 187 189 190 192 195 190 173 160 153 153 155 149 142 138 136 137 140 136 132 134 142 145 144 125 91 92 104 109
168 184 183 180 180 173 159 157 178 195 205 202 190 193 191 185 186 171 174 182 168 156 172 188 210 219 192 170 179 174 172 181 187 187 183 180 183 185 191 199 198 182 167 161 161 161 155 150 146 141 142 142 134 133 141 151 160 165 134 71 80 114 121
171 179 176 172 173 168 158 163 185 199 203 206 205 207 207 198 190 182 175 181 187 186 177 174 184 188 177 173 176 166 166 177 179 181 181 178 179 179 185 194 192 182 174 169 169 172 169 163 155 144 141 135 127 131 139 144 150 133 56 40 49 76 94
173 174 171 170 170 164 158 163 181 198 213 225 207 198 206 183 168 179 177 175 184 178 160 162 175 175 180 184 174 161 162 166 162 163 167 163 159 159 168 181 180 176 174 172 175 179 171 161 155 144 140 137 134 139 142 142 144 136 108 12 17 45 70
174 173 172 174 168 161 162 169 186 200 211 218 204 184 179 160 157 177 184 178 172 160 149 154 162 162 178 184 168 155 155 151 146 150 150 140 130 122 121 137 154 164 169 169 174 175 161 155 152 142 141 142 143 149 150 148 150 148 146 299 342 11 54
178 177 178 177 169 165 172 178 189 203 210 210 218 216 173 163 170 188 196 180 157 151 145 143 149 148 156 163 154 147 147 143 142 144 140 131 125 118 111 113 126 144 156 160 164 164 158 157 155 145 142 146 152 156 154 156 162 163 163 186 293 353 46
179 180 179 175 172 172 175 181 192 207 218 217 225 232 187 174 182 192 198 168 149 151 152 151 156 149 139 143 142 140 142 143 143 139 133 130 128 126 124 119 118 125 136 148 156 159 160 163 165 160 150 148 155 159 157 160 167 172 183 203 195 54 54
181 180 178 174 177 179 177 187 200 210 218 222 230 228 191 180 186 190 183 156 148 151 156 162 168 161 145 140 140 140 141 145 145 140 137 136 136 136 135 130 125 122 123 137 150 154 159 171 181 181 174 157 158 162 161 160 163 172 183 207 170 110 90
182 180 179 177 181 183 182 192 205 210 211 221 228 209 178 175 181 176 154 144 147 154 161 164 164 163 155 148 147 145 143 147 149 147 147 147 147 148 142 134 131 128 123 133 141 139 141 154 170 177 183 180 171 169 165 158 159 173 182 177 144 111 96
182 183 186 185 185 184 185 193 201 204 204 207 198 176 163 159 154 146 136 136 146 157 162 160 158 164 162 158 159 157 151 152 154 153 153 152 155 159 153 144 142 140 139 144 147 145 141 143 149 155 168 179 178 177 174 168 163 165 177 179 165 113 74
185 190 193 190 185 181 184 192 197 197 191 173 160 156 154 148 142 140 139 140 145 152 157 159 159 160 162 165 168 167 162 159 157 155 155 155 154 157 158 158 154 149 150 153 157 162 160 151 145 143 153 166 176 185 190 187 172 160 167 195 198 192 172
190 194 197 193 186 180 184 190 189 187 171 153 151 152 144 139 138 136 139 143 146 149 153 153 147 146 151 157 156 153 157 161 160 156 155 151 141 135 142 151 151 149 154 160 165 170 171 168 160 154 155 152 157 175 187 185 175 168 172 189 189 169 162
194 195 197 195 188 183 186 187 183 178 159 147 147 139 125 126 127 126 128 131 141 150 149 141 141 144 141 138 136 139 143 145 147 149 148 145 138 134 135 139 142 144 149 155 158 157 156 163 168 162 160 155 150 158 169 166 168 173 175 178 176 160 133
201 199 196 192 188 186 188 184 179 177 161 147 143 134 129 135 134 134 134 127 133 144 145 144 151 151 141 139 143 145 143 141 143 148 150 148 147 145 142 140 140 141 143 148 150 146 144 152 160 155 152 160 167 169 169 162 156 156 157 164 173 166 134
206 202 191 186 187 189 187 181 180 178 164 150 145 145 154 154 147 151 156 144 136 141 148 155 163 155 146 150 159 158 153 152 156 162 162 158 155 152 149 146 145 146 148 153 156 153 151 155 162 162 157 159 172 179 170 158 149 144 153 163 167 162 146
205 197 186 184 189 189 183 179 180 176 167 154 149 157 172 162 154 164 173 162 152 153 159 164 164 159 156 161 168 168 164 164 169 174 172 166 162 159 157 156 156 159 163 167 169 166 163 164 169 178 180 175 175 180 172 161 153 151 168 176 162 146 153
193 186 181 182 188 191 187 184 181 176 173 160 153 166 181 168 162 173 182 178 172 169 171 166 159 163 168 173 176 176 174 171 172 177 178 174 170 169 169 171 173 175 176 179 182 180 177 178 179 183 189 186 174 172 172 169 166 162 171 179 175 163 171
185 184 182 181 183 188 189 188 182 180 182 172 165 176 184 169 169 179 181 184 192 198 190 178 172 171 177 184 185 182 180 176 173 178 184 184 182 182 184 186 187 188 188 190 191 189 190 191 189 190 190 190 187 180 180 183 185 188 180 174 184 199 207
187 188 184 181 183 186 187 187 184 182 187 186 181 188 189 174 174 184 183 185 199 219 223 196 193 194 192 195 197 193 189 185 184 188 193 196 198 199 202 204 202 199 200 204 201 194 195 198 199 198 195 200 205 194 190 193 194 197 192 182 190 209 221
184 187 183 181 183 187 189 191 190 182 187 203 203 199 197 187 183 186 184 186 206 225 237 224 214 216 213 211 211 209 206 202 201 202 204 208 212 214 220 225 223 217 215 216 212 200 195 198 202 205 206 212 216 208 201 200 197 200 203 201 207 223 231
179 183 184 187 190 194 196 199 200 190 187 202 215 211 205 197 194 194 189 191 206 221 231 232 228 228 227 225 224 222 220 216 214 215 215 216 217 217 221 226 228 230 229 225 220 212 206 205 207 213 218 220 221 220 215 209 208 212 213 210 216 230 239
166 170 180 198 203 203 204 205 204 197 192 198 208 212 211 205 203 206 202 199 203 213 224 230 230 230 230 231 233 233 232 229 225 223 224 221 217 217 222 227 228 230 231 231 229 221 215 216 217 222 228 227 224 225 223 219 219 223 222 221 226 234 239
124 128 143 178 181 183 199 209 204 200 200 204 209 214 218 217 214 215 217 214 210 212 220 228 232 231 229 230 236 237 238 243 241 234 229 222 216 217 225 230 230 229 231 234 234 230 226 228 230 232 236 239 236 232 228 225 223 224 228 232 238 241 243
81 73 61 62 91 117 168 216 216 213 212 216 219 221 224 228 227 225 228 227 223 220 222 227 232 233 229 229 232 234 236 240 244 240 232 224 222 223 225 227 229 230 234 236 235 236 238 239 240 243 248 251 247 239 233 229 229 234 242 245 244 244 246
85 74 63 54 50 41 13 313 272 248 234 232 233 232 233 235 236 237 238 238 235 230 228 229 233 235 233 232 233 236 235 234 236 238 237 234 233 229 224 227 231 233 236 237 236 240 245 244 246 252 256 256 248 239 235 234 234 238 244 248 247 246 247
106 98 90 84 76 60 34 3 349 330 303 281 266 253 246 243 242 243 245 246 245 242 239 239 240 240 240 240 241 242 241 237 236 239 241 241 240 237 233 232 234 237 240 239 241 249 253 252 252 255 257 253 242 234 233 233 234 238 244 248 250 249 250
114 119 116 122 119 105 92 70 32 357 338 324 309 294 278 266 259 255 252 252 251 250 249 248 248 248 248 249 249 248 246 243 240 241 242 243 244 246 245 242 244 248 247 245 248 254 254 251 251 252 252 245 233 226 227 230 235 241 246 249 251 251 254
10 7 192 196 193 198 201 183 167 86 352 326 311 305 298 289 279 271 266 263 259 257 256 254 252 253 252 252 253 252 250 249 247 246 245 245 248 251 250 252 255 253 248 248 254 253 247 244 245 245 242 236 227 222 223 228 235 243 249 252 254 255 256
311 300 290 282 266 258 256 249 242 240 243 251 262 278 288 289 285 280 276 273 270 267 264 261 260 260 257 256 256 255 254 254 254 252 250 249 251 252 254 257 258 253 250 252 251 245 241 241 238 233 231 229 225 222 226 232 237 243 248 251 253 254 256
293 288 285 284 280 276 273 267 262 258 255 256 255 254 259 268 276 280 280 276 273 271 269 267 264 262 262 262 262 262 260 259 257 254 253 253 253 254 255 256 256 255 252 246 236 232 236 236 232 228 227 226 224 226 232 236 239 242 244 245 248 253 260
282 282 282 283 282 281 278 276 274 271 267 266 265 262 260 258 260 267 273 275 275 273 272 270 265 261 261 263 265 267 266 263 261 258 255 254 254 255 256 256 254 251 242 229 224 226 228 230 228 226 226 226 226 227 230 231 234 238 240 242 248 256 263
278 278 278 279 278 277 277 276 275 273 272 272 272 271 268 263 259 258 261 266 271 272 271 270 267 264 263 262 263 267 267 266 265 263 259 257 256 256 256 254 249 243 233 227 224 221 220 221 221 220 226 229 226 221 221 225 230 235 239 244 250 257 263
282 281 280 280 279 277 276 276 275 275 274 273 274 274 272 268 264 261 258 260 266 270 271 270 268 266 263 262 262 263 266 267 266 264 263 260 257 256 255 250 243 235 228 222 218 216 214 214 214 220 227 228 222 218 221 229 235 239 243 249 256 264 274
286 285 285 283 281 279 277 276 275 276 276 275 276 278 278 277 275 270 267 265 267 270 269 268 268 267 266 265 264 265 267 266 264 263 260 257 257 257 253 243 232 223 217 215 215 213 211 209 212 220 223 220 218 220 226 236 245 247 249 254 260 268 276
292 290 288 286 284 282 281 280 278 277 277 277 278 279 282 286 287 284 280 275 274 275 274 270 267 266 265 265 266 267 267 266 262 259 257 257 258 253 242 232 222 215 212 212 211 209 208 209 212 213 212 212 214 218 225 235 243 247 252 259 263 265 266